星链-30303 (STARLINK-30303 )

导读

STARLINK-30303是美国SpaceX星链互联网项目中的一颗卫星,于2023年8月22日发射入轨。作为星链星座的组成部分,它旨在为全球范围提供低延迟、高速率的卫星互联网服务,服务覆盖偏远地区、海上、空中等传统网络难以覆盖的区域,是美国太空互联网基础设施建设的组成单元。

基本信息
目录编号:
57677
目录名称:
STARLINK-30303
国际标识:
2023-124Q
轨道中心:
EARTH
卫星名称:
星链-30303
卫星全名:
星链-30303 (STARLINK-30303 )
卫星状态:
在轨 (已飞行1031 天)
发射日期:
2023-08-22 UTC
国别 :
美国 (US)
星等 :
--
轨道信息
数据来源 国际轨道数据
星历时间: 2026-06-18T10:01:55+0800
11小时前
查看轨道信息
半长轴: 6853.367km
偏心率: 0.0001299
轨道倾角: 53.161°
近地点辐角 82.040°
升交点赤经 100.152°
平近点角 278.075°
近地点: 474.339km
远地点: 476.121km
周期: 94.106分钟
每日圈数: 15.301953
详细信息
固有亮度:
5
最大亮度:
0.3
卫星平台:
Starlink v2.0 mini
覆盖范围:
全球
运营商:
太空探索技术公司
运营商所在国:
美国
制造商(研发单位):
太空探索技术公司
制造商所在国:
美国
使用方式:
暂无
卫星简介
星链(Starlink)计划是由太空探索技术公司(SpaceX)提出的一个巨型低轨卫星互联网星座项目,计划在2019年至2024年间在太空搭建由约1.2万颗卫星组成的“星链”网络,其中1584颗将部署在地球上空550千米处的近地轨道,并从2020年开始工作。该卫星仍在工作。
2D轨道图
3D轨道图
轨道高度分析图
轨道倾角分析图
轨道综合分析图
查看轨道综合分析图